Date,TemperatureHighF,TemperatureAvgF,TemperatureLowF,DewpointHighF,DewpointAvgF,DewpointLowF,HumidityHigh,HumidityAvg,HumidityLow,PressureMaxIn,PressureMinIn,WindSpeedMaxMPH,WindSpeedAvgMPH,GustSpeedMaxMPH,PrecipitationSumIn
2013-1-1,55.1,52.9,48.8,50.0,47.3,40.8,89,82,72,30.14,29.92,4,2,4,0.00
2013-1-2,52.6,49.4,43.0,49.2,46.0,39.1,91,88,80,30.16,29.88,10,2,10,0.00
2013-1-3,43.6,40.7,32.6,38.3,35.8,28.5,89,83,74,30.26,30.12,3,1,3,0.00
2013-1-4,52.4,36.2,27.0,33.3,28.4,23.6,89,75,45,30.32,30.21,4,1,4,0.00
2013-1-5,52.0,37.9,25.9,31.8,26.7,21.4,85,66,41,30.39,30.27,10,0,10,0.00
2013-1-6,46.8,45.5,43.4,43.5,41.5,37.3,89,86,79,30.22,30.06,2,0,2,0.00
2013-1-7,54.4,42.9,32.6,42.4,34.4,28.5,91,74,50,30.41,30.16,8,1,8,0.00
2013-1-8,45.4,42.4,39.8,40.5,37.1,34.5,84,81,76,30.42,30.37,2,1,2,0.00
2013-1-9,70.6,53.3,40.1,56.5,47.0,36.3,89,80,59,30.41,30.34,2,0,2,0.00
2013-1-10,70.9,61.1,48.8,54.1,50.0,41.9,90,68,55,30.49,30.40,5,2,5,0.00
2013-1-11,70.2,55.0,48.6,62.5,48.0,40.1,89,78,62,30.40,30.15,4,1,4,0.00
2013-1-12,76.0,59.2,54.0,65.1,55.4,50.9,91,87,69,30.16,30.11,5,1,5,0.00
2013-1-13,76.9,69.6,58.0,64.1,60.1,55.1,91,73,58,30.14,30.06,5,2,5,0.00
2013-1-14,77.8,66.2,53.6,64.1,59.3,50.5,91,79,60,30.17,30.08,7,2,7,0.00
2013-1-15,59.9,55.7,52.4,56.5,52.4,49.5,90,89,86,30.16,30.08,5,2,5,0.00
2013-1-16,75.6,59.8,53.1,64.5,56.0,50.5,92,87,65,30.03,29.94,8,1,8,0.00
2013-1-17,57.2,53.0,40.7,54.6,50.1,37.7,91,90,87,30.03,29.75,15,4,15,0.00
2013-1-18,50.2,40.3,30.8,36.5,30.4,24.8,89,70,40,30.51,30.10,8,2,8,0.00
2013-1-19,59.2,42.5,26.6,40.7,32.6,22.7,86,70,45,30.48,30.16,4,1,4,0.00
2013-1-20,64.1,47.9,37.3,43.2,36.8,33.7,89,69,38,30.16,30.00,6,1,6,0.00
2013-1-21,64.3,43.7,31.7,39.4,33.0,27.2,84,68,39,30.06,29.89,4,1,4,0.00
2013-1-22,45.7,39.3,27.5,28.5,16.0,13.0,56,40,27,30.24,29.97,5,1,5,0.00
2013-1-23,44.1,33.9,21.4,20.2,14.6,9.5,65,47,30,30.38,30.11,3,0,3,0.00
2013-1-24,43.9,37.1,24.8,35.5,19.4,7.0,77,50,28,30.50,30.01,17,1,17,0.00
2013-1-25,32.0,28.3,19.1,23.6,17.0,9.0,80,63,46,30.50,30.12,0,0,0,0.00
2013-1-26,44.6,32.2,27.5,34.8,26.1,22.3,84,79,60,30.36,30.10,8,0,8,0.00
2013-1-27,43.9,36.7,29.5,31.3,27.3,23.1,87,69,55,30.57,30.50,6,1,6,0.00
2013-1-28,58.3,49.6,34.6,47.0,41.0,29.9,84,73,62,30.47,30.27,2,0,2,0.00
2013-1-29,74.9,60.7,43.0,59.9,52.8,39.4,89,76,56,30.24,30.10,8,2,8,0.00
2013-1-30,73.6,66.0,59.8,64.4,60.8,56.3,91,83,73,30.09,29.51,13,3,13,0.00
2013-1-31,61.9,49.5,38.0,57.1,33.8,24.9,87,57,34,30.06,29.56,17,5,17,0.00
2013-2-1,49.1,43.5,40.7,30.3,23.3,7.6,58,47,21,30.22,29.97,9,5,9,0.00
2013-2-2,50.8,43.0,33.8,35.0,23.1,14.1,75,48,29,30.39,30.05,4,1,4,0.00
2013-2-3,54.4,48.2,40.0,36.3,30.1,25.4,67,50,41,29.99,29.86,6,2,6,0.00
2013-2-4,51.5,39.3,26.5,30.2,25.8,19.9,79,60,40,30.14,30.00,1,0,1,0.00
2013-2-5,65.0,55.7,43.9,39.2,37.3,35.5,74,52,37,30.01,29.88,10,2,10,0.00
2013-2-6,66.8,49.6,36.0,47.2,36.5,31.3,87,64,34,30.21,29.97,4,1,4,0.00
2013-2-7,55.8,48.9,38.7,46.6,44.2,34.3,90,84,70,30.25,29.88,10,5,10,0.00
2013-2-8,60.1,50.6,46.4,47.5,44.5,31.6,90,80,55,30.04,29.70,10,4,10,0.00
2013-2-9,56.5,42.9,32.4,31.3,26.2,20.1,74,54,25,30.35,30.05,7,1,7,0.00
2013-2-10,60.3,52.2,37.4,43.7,36.2,26.6,76,57,34,30.46,30.25,5,1,5,0.00
2013-2-11,67.0,60.9,49.3,61.2,57.1,45.3,90,87,81,30.20,29.96,13,5,13,0.00
2013-2-12,61.9,56.5,53.5,54.8,46.4,38.5,89,70,42,30.09,29.94,4,1,4,0.00
2013-2-13,55.3,52.1,50.0,51.8,48.6,45.9,92,88,85,29.79,29.64,9,2,9,0.00
2013-2-14,54.0,46.0,37.3,38.6,36.0,32.8,86,69,53,30.07,29.96,5,0,5,0.00
2013-2-15,62.8,51.2,30.8,43.4,37.1,27.4,89,61,39,30.09,29.93,5,1,5,0.00
2013-2-16,47.7,39.4,33.8,37.5,34.1,30.8,89,82,65,29.93,29.82,7,2,7,0.00
2013-2-17,41.4,37.4,29.7,17.6,14.6,12.5,60,40,31,30.22,30.11,13,4,13,0.00
2013-2-18,54.2,42.9,20.5,25.3,22.1,15.3,83,47,27,30.42,30.29,4,1,4,0.00
2013-2-19,56.9,50.8,31.3,51.3,45.4,25.9,89,82,71,30.12,29.89,9,3,9,0.00
2013-2-20,55.4,45.8,31.3,32.8,25.9,19.8,87,50,25,30.10,30.01,6,2,6,0.00
2013-2-21,57.2,47.6,31.0,30.4,25.9,22.1,74,45,29,30.22,30.09,5,1,5,0.00
2013-2-22,44.3,41.3,39.1,36.4,31.8,26.7,90,70,53,30.28,30.08,5,2,5,0.00
2013-2-23,45.5,41.3,38.7,43.1,38.8,36.0,91,91,90,30.08,29.82,3,0,3,0.00
2013-2-24,65.5,49.8,42.1,48.2,43.3,36.4,92,80,45,29.98,29.79,5,1,5,0.00
2013-2-25,44.1,41.5,38.2,30.9,29.5,27.3,67,62,55,30.18,30.09,8,3,8,0.00
2013-2-26,68.6,56.5,40.5,64.2,53.0,35.7,92,88,83,29.92,29.53,5,2,5,0.00
2013-2-27,61.0,51.4,43.0,43.7,40.5,37.5,81,67,51,29.83,29.73,7,2,7,0.00
2013-2-28,52.9,47.8,36.4,39.5,33.5,27.5,87,59,45,29.85,29.73,8,2,8,0.00
2013-3-1,51.8,41.1,30.8,32.0,29.3,25.0,81,64,44,29.90,29.82,4,1,4,0.00
2013-3-2,47.5,41.8,36.9,33.7,30.0,27.2,77,63,50,29.89,29.82,5,1,5,0.00
2013-3-3,49.0,41.9,34.0,24.4,23.1,21.2,62,48,38,29.96,29.83,6,2,6,0.00
2013-3-4,53.6,42.3,27.7,21.3,19.3,16.3,63,42,24,30.12,30.01,4,2,4,0.00
2013-3-5,62.5,54.9,33.7,49.7,42.5,26.5,78,64,42,30.06,29.59,8,2,8,0.00
2013-3-6,57.6,47.9,41.0,51.1,31.9,25.1,81,55,38,30.01,29.54,16,6,16,0.00
2013-3-7,56.7,48.3,34.6,33.2,30.6,26.7,74,51,39,30.20,30.08,5,2,5,0.00
2013-3-8,58.1,44.9,31.0,28.2,25.9,22.3,72,49,30,30.28,30.12,8,2,8,0.00
2013-3-9,64.4,55.1,38.7,34.9,32.4,24.8,66,44,32,30.28,30.22,4,1,4,0.00
2013-3-10,70.2,61.2,42.8,39.1,29.2,23.2,80,33,18,30.31,30.19,2,1,2,0.00
2013-3-11,70.4,61.9,41.2,54.9,50.5,33.2,82,67,52,30.15,29.96,7,2,7,0.00
2013-3-12,74.9,67.0,60.3,62.9,57.8,40.5,90,74,48,29.89,29.75,9,3,9,0.00
2013-3-13,62.1,53.4,41.2,34.1,29.8,23.9,66,42,28,30.09,29.93,9,2,9,0.00
2013-3-14,55.4,45.0,31.9,24.9,22.1,17.9,59,41,28,30.25,30.11,7,2,7,0.00
2013-3-15,66.6,52.3,28.4,37.7,30.4,21.8,80,46,29,30.19,29.95,10,3,10,0.00
2013-3-16,82.4,74.7,67.1,47.9,44.2,41.1,41,34,29,29.85,29.72,17,6,17,0.00
2013-3-17,76.9,63.4,51.5,55.1,46.7,41.1,72,56,40,30.10,29.85,11,3,11,0.00
2013-3-18,59.8,50.5,44.3,49.6,43.2,38.8,85,76,69,30.13,29.90,7,2,7,0.00
2013-3-19,72.4,59.0,45.4,50.2,40.2,29.4,89,56,23,29.97,29.84,8,3,8,0.00
2013-3-20,59.2,47.7,36.5,26.5,21.1,15.2,61,37,23,30.11,29.80,4,1,4,0.00
2013-3-21,52.4,42.4,31.9,29.3,21.8,13.1,77,48,24,29.93,29.70,8,2,8,0.00
2013-3-22,55.8,42.8,25.7,23.8,19.1,13.5,61,40,25,30.10,29.98,4,1,4,0.00
2013-3-23,56.7,48.6,41.0,40.9,38.0,32.4,77,67,54,30.05,29.90,2,0,2,0.00
2013-3-24,46.8,43.2,40.3,43.5,39.4,35.1,90,86,78,29.93,29.49,9,2,9,0.00
2013-3-25,51.1,45.0,40.0,40.3,33.8,26.0,90,68,42,29.83,29.54,12,3,12,0.00
2013-3-26,50.2,45.3,36.7,30.8,28.7,25.7,65,53,46,30.10,29.90,6,2,6,0.00
2013-3-27,56.7,48.6,29.5,29.0,25.6,22.5,77,42,30,30.21,30.12,10,3,10,0.00
2013-3-28,60.3,48.5,28.6,28.3,26.5,21.7,75,44,28,30.27,30.15,7,2,7,0.00
2013-3-29,66.1,53.0,29.9,32.7,28.7,22.2,76,42,24,30.33,30.17,11,2,11,0.00
2013-3-30,69.5,58.0,48.8,51.1,46.1,42.6,83,66,46,30.24,30.10,8,1,8,0.00
2013-3-31,74.5,66.9,57.6,57.3,55.5,53.7,87,68,51,29.96,29.83,8,3,8,0.00
2013-4-1,76.5,63.7,55.4,57.9,53.3,43.0,89,72,33,29.91,29.82,5,1,5,0.00
2013-4-2,69.1,55.3,44.3,43.3,35.3,29.3,68,48,32,30.14,29.95,5,2,5,0.00
2013-4-3,62.5,52.0,46.8,36.6,31.1,28.2,66,46,30,30.26,30.16,9,2,9,0.00
2013-4-4,48.6,45.4,42.3,42.4,38.9,33.8,89,78,64,30.27,29.86,9,4,9,0.00
2013-4-5,65.9,52.6,42.3,48.7,43.8,39.0,89,73,49,30.01,29.88,6,2,6,0.00
2013-4-6,72.4,52.2,39.1,44.2,39.2,35.1,86,65,32,30.26,30.01,8,2,8,0.00
2013-4-7,77.0,66.2,45.2,49.2,46.0,39.5,83,51,32,30.27,30.12,5,2,5,0.00
2013-4-8,84.2,69.7,50.0,59.0,54.8,45.4,90,62,39,30.19,30.08,10,4,10,0.00
2013-4-9,88.6,68.0,54.0,62.7,56.5,49.4,90,69,40,30.21,30.10,8,2,8,0.00
2013-4-10,89.5,73.8,57.6,64.0,60.3,53.1,88,65,43,30.14,29.99,9,3,9,0.00
2013-4-11,86.4,70.2,57.2,67.1,61.4,53.1,90,76,46,30.02,29.84,10,2,10,0.00
2013-4-12,82.4,72.2,67.3,70.0,66.1,63.9,89,82,65,29.85,29.68,10,3,10,0.00
2013-4-13,81.5,72.3,58.7,51.8,45.7,42.8,69,40,28,30.01,29.90,5,2,5,0.00
2013-4-14,81.7,77.9,75.2,54.8,53.2,49.7,49,43,33,30.06,30.03,4,2,4,0.00
2013-4-15,75.8,70.0,60.5,60.9,58.9,54.4,80,68,60,30.18,30.00,3,1,3,0.00
2013-4-16,82.8,66.9,54.2,61.9,56.8,50.2,90,72,47,30.26,30.18,2,0,2,0.00
2013-4-17,81.7,71.3,54.4,65.2,60.9,50.2,88,71,52,30.24,30.16,4,1,4,0.00
2013-4-18,85.9,71.8,57.8,65.3,61.8,53.7,87,72,46,30.18,30.06,4,1,4,0.00
2013-4-19,84.2,75.9,68.2,70.8,68.0,64.8,89,77,64,29.97,29.80,10,4,10,0.00
2013-4-20,61.2,57.0,47.5,46.4,42.0,38.6,78,58,49,30.24,30.12,4,1,4,0.00
2013-4-21,70.6,66.5,54.2,48.2,45.3,40.6,60,47,43,30.41,30.34,14,3,14,0.00
2013-4-22,65.3,56.0,40.1,47.7,43.7,34.7,81,64,52,30.35,30.19,14,5,14,0.00
2013-4-23,74.9,60.1,49.1,54.3,49.9,45.4,87,70,47,30.22,30.11,7,2,7,0.00
2013-4-24,82.8,69.0,47.3,59.0,54.8,43.7,89,63,39,30.16,30.02,8,3,8,0.00
2013-4-25,76.5,66.0,57.6,56.2,53.6,51.5,82,66,46,30.26,30.11,4,1,4,0.00
2013-4-26,79.9,64.8,48.2,52.0,46.7,40.9,88,56,29,30.40,30.25,5,1,5,0.00
2013-4-27,77.8,70.6,59.9,54.6,49.5,44.8,74,49,34,30.36,30.26,2,0,2,0.00
2013-4-28,74.2,61.8,54.0,56.8,50.3,44.5,74,67,53,30.27,30.13,2,0,2,0.00
2013-4-29,76.5,68.9,62.6,64.9,62.0,58.6,90,79,63,30.04,29.96,2,1,2,0.00
2013-4-30,77.2,66.6,61.4,64.0,60.3,58.1,90,81,61,30.09,29.98,6,2,6,0.00
2013-5-1,68.8,63.7,57.1,59.8,58.0,53.1,90,82,72,30.24,30.12,8,3,8,0.00
2013-5-2,69.3,62.4,58.9,62.1,57.8,54.5,90,85,75,30.26,30.19,6,2,6,0.00
2013-5-3,59.9,57.7,55.3,45.1,44.6,44.1,66,62,58,30.15,30.14,2,1,2,0.00
2013-5-5,63.2,60.3,55.4,59.6,56.1,50.6,88,86,83,29.99,29.90,7,2,7,0.00
2013-5-6,80.8,68.5,57.6,64.5,58.8,50.4,90,73,46,29.88,29.80,7,1,7,0.00
2013-5-7,72.0,64.0,54.0,54.9,51.8,49.9,86,67,48,29.91,29.85,6,2,6,0.00
2013-5-8,80.3,68.9,52.4,58.4,56.3,48.9,89,66,47,29.99,29.93,6,2,6,0.00
2013-5-9,87.1,73.6,57.1,61.6,58.2,52.9,89,62,39,30.06,29.96,5,1,5,0.00
2013-5-10,88.6,73.9,59.4,65.9,60.8,55.3,87,66,41,30.06,29.97,5,2,5,0.00
2013-5-11,71.3,70.2,68.4,60.7,60.0,59.0,74,70,69,29.99,29.96,3,2,3,0.00
2013-5-12,76.9,70.6,65.3,51.4,49.3,47.7,53,47,41,29.98,29.90,4,1,4,0.00
2013-5-13,74.0,62.5,49.7,40.9,38.1,35.2,65,43,26,30.12,30.02,8,2,8,0.00
2013-5-14,49.3,48.3,46.1,39.6,38.5,37.2,73,69,67,30.17,30.13,0,0,0,0.00
2013-5-15,92.5,76.4,55.8,63.9,57.9,49.3,79,54,39,30.09,29.93,7,3,7,0.00
2013-5-16,87.8,79.2,63.0,64.1,61.8,57.7,83,57,42,30.00,29.93,2,1,2,0.00
2013-5-17,93.4,83.8,63.7,64.1,62.1,58.4,83,51,36,30.06,30.02,3,1,3,0.00
2013-5-18,87.5,76.8,64.4,67.6,63.4,58.3,82,65,47,30.12,30.07,3,2,3,0.00
2013-5-19,78.1,71.8,68.8,70.3,66.0,63.7,84,82,77,30.15,30.08,4,0,4,0.00
2013-5-20,77.6,74.7,70.9,69.8,68.3,66.9,89,81,75,30.12,30.05,5,1,5,0.00
2013-5-21,80.1,75.3,69.8,70.7,68.7,66.8,90,80,73,30.06,29.98,4,1,4,0.00
2013-5-22,85.3,77.1,68.0,74.6,68.2,65.0,90,75,61,30.04,29.93,3,0,3,0.00
2013-5-23,72.5,70.2,68.8,68.0,66.2,65.1,89,87,81,29.97,29.85,1,0,1,0.00
2013-5-24,76.9,66.8,57.1,63.3,57.9,43.7,90,76,37,30.16,29.84,2,1,2,0.00
2013-5-26,85.7,72.6,66.8,54.0,49.6,47.9,52,45,34,30.21,30.17,0,0,0,0.00
2013-5-27,91.1,64.6,50.0,59.4,52.0,45.0,84,68,33,30.27,30.17,2,0,2,0.00
2013-5-28,74.3,65.1,59.8,65.9,57.9,54.5,86,78,67,30.24,30.19,4,1,4,0.00
2013-5-29,93.2,80.7,62.1,68.8,65.0,57.5,87,61,42,30.25,30.19,5,1,5,0.00
2013-5-30,89.3,78.2,61.2,68.8,64.7,56.7,86,65,51,30.26,30.17,2,0,2,0.00
2013-5-31,94.3,79.9,64.4,70.3,67.2,59.9,87,68,46,30.23,30.11,3,1,3,0.00
2013-6-1,90.4,83.1,76.5,71.2,67.9,65.2,68,61,48,30.13,30.06,4,2,4,0.00
2013-6-2,89.8,77.0,66.1,71.5,67.2,62.0,88,74,50,30.08,29.93,10,2,10,0.00
2013-6-3,76.5,74.0,70.2,72.4,70.1,66.8,89,88,85,29.94,29.87,3,1,3,0.00
2013-6-4,86.6,76.7,67.0,72.5,69.0,64.2,91,78,63,30.08,29.96,5,1,5,0.00
2013-6-5,87.8,80.5,68.6,68.7,67.3,63.9,85,65,53,30.09,30.00,1,0,1,0.00
2013-6-6,75.8,73.5,72.5,71.0,69.2,66.2,88,86,80,30.02,29.86,1,0,1,0.00
2013-6-7,78.1,75.8,72.4,72.9,71.6,69.6,91,87,84,29.63,29.53,1,0,1,0.00
2013-6-8,86.9,86.3,86.0,73.8,72.6,72.0,65,64,63,29.98,29.98,6,4,6,0.00
2013-6-9,89.1,83.2,76.1,76.2,74.1,72.7,89,75,63,30.15,30.07,1,1,1,0.00
2013-6-10,78.8,74.3,71.8,74.0,70.5,68.0,90,88,84,30.08,29.97,4,1,4,0.00
2013-6-11,75.1,72.6,71.6,71.0,68.6,65.4,90,87,79,29.98,29.95,6,2,6,0.00
2013-6-12,99.4,82.5,66.4,75.3,69.2,62.7,88,68,44,29.98,29.89,6,1,6,0.00
2013-6-13,100.1,83.2,74.9,76.7,70.3,62.0,88,68,42,29.88,29.66,6,2,6,0.00
2013-6-14,81.4,71.2,66.6,67.2,60.8,58.4,85,70,51,30.00,29.73,5,1,5,0.00
2013-6-15,92.0,82.5,68.0,64.4,61.7,56.6,83,51,40,30.13,30.05,6,2,6,0.00
2013-6-16,92.9,80.1,67.3,68.2,64.8,57.6,84,61,45,30.16,30.04,6,3,6,0.00
2013-6-17,89.8,79.8,69.7,73.2,69.5,65.3,88,72,56,30.06,29.96,8,2,8,0.00
2013-6-18,90.5,77.8,70.0,75.4,70.7,66.2,89,80,61,29.99,29.79,6,2,6,0.00
2013-6-19,86.4,76.6,69.3,72.8,68.5,65.6,89,77,61,30.05,29.93,3,1,3,0.00
2013-6-20,94.0,83.8,64.1,69.3,66.3,60.8,89,58,45,30.19,30.14,1,0,1,0.00
2013-6-21,89.6,80.2,59.9,69.1,65.0,56.4,88,61,51,30.21,30.15,6,3,6,0.00
2013-6-22,86.4,80.1,76.3,77.1,72.8,71.5,87,78,74,30.15,30.10,4,1,4,0.00
2013-6-23,92.0,85.0,75.8,76.1,73.2,70.6,89,69,54,30.20,30.12,6,1,6,0.00
2013-6-24,86.4,79.4,74.5,75.3,73.0,71.1,89,81,68,30.21,30.19,0,0,0,0.00
2013-6-25,87.8,77.6,71.8,75.6,71.1,68.0,89,81,66,30.14,30.03,0,0,0,0.00
2013-6-26,88.9,79.9,70.2,76.2,72.3,66.1,89,78,66,30.04,29.93,0,0,0,0.00
2013-6-27,93.1,80.7,73.1,77.1,73.4,69.7,89,79,58,29.90,29.77,0,0,0,0.00
2013-6-28,95.4,82.5,75.2,77.8,74.6,71.8,89,78,53,29.73,29.62,0,0,0,0.00
2013-6-29,85.7,80.3,76.1,74.3,72.4,70.7,83,77,68,29.76,29.67,0,0,0,0.00
2013-6-30,85.7,80.2,76.1,76.2,74.1,70.8,87,82,72,29.80,29.76,0,0,0,0.00
2013-7-1,81.5,76.3,73.4,75.3,72.1,70.4,90,87,78,30.01,29.88,0,0,0,0.00
2013-7-2,78.8,76.6,73.8,74.7,72.7,70.7,90,88,85,30.18,30.06,0,0,0,0.00
2013-7-3,85.5,76.2,74.5,77.0,72.4,71.1,90,88,76,30.24,30.16,0,0,0,0.00
2013-7-4,92.0,79.6,75.1,75.7,73.7,72.0,90,83,59,30.26,30.20,0,0,0,0.00
2013-7-5,77.2,73.9,72.0,73.8,70.3,68.2,89,88,88,30.25,30.24,0,0,0,0.00
2013-7-6,94.1,86.3,75.8,76.1,72.8,68.1,78,65,51,30.24,30.13,0,0,0,0.00
2013-7-7,88.9,81.2,76.1,73.8,72.6,71.1,88,76,60,30.20,30.09,0,0,0,0.00
2013-7-8,92.2,82.4,72.7,76.3,73.5,68.9,88,75,60,30.18,30.11,0,0,0,0.00
2013-7-9,83.9,79.5,75.1,75.5,73.8,71.5,89,83,76,30.16,30.10,0,0,0,0.00
2013-7-10,94.7,88.2,74.2,74.4,72.5,70.7,89,61,51,30.09,29.97,0,0,0,0.00
2013-7-11,91.1,83.0,75.1,76.1,72.7,70.4,87,72,57,29.98,29.88,0,0,0,0.00
2013-7-12,80.3,76.7,73.1,73.6,71.8,69.0,88,85,79,29.98,29.93,0,0,0,0.00
2013-7-13,78.7,76.0,74.0,74.5,72.2,70.6,89,88,86,30.14,30.05,0,0,0,0.00
2013-7-14,93.2,86.3,73.8,77.1,74.6,70.4,89,69,56,30.26,30.21,0,0,0,0.00
2013-7-15,94.9,80.1,72.2,77.2,71.4,67.8,87,76,57,30.28,30.23,0,0,0,0.00
2013-7-16,102.8,85.5,71.3,77.5,73.7,66.9,86,70,42,30.28,30.17,0,0,0,0.00
2013-7-17,97.9,81.7,75.6,78.2,73.7,71.2,87,78,50,30.21,30.10,0,0,0,0.00
2013-7-18,91.3,82.8,74.9,74.7,73.0,70.5,86,73,56,30.14,30.06,0,0,0,0.00
2013-7-19,92.9,81.0,73.8,74.8,72.1,69.8,87,76,55,30.13,30.01,0,0,0,0.00
2013-7-20,89.1,80.9,75.2,74.5,72.6,70.8,86,76,60,30.06,29.97,0,0,0,0.00
2013-7-21,88.9,78.8,74.0,76.2,72.7,69.9,87,82,66,30.02,29.93,0,0,0,0.00
2013-7-22,92.9,82.5,74.2,77.5,73.5,70.4,88,76,58,29.96,29.87,0,0,0,0.00
2013-7-23,97.4,86.3,75.6,75.4,73.6,71.2,86,67,49,29.86,29.74,0,0,0,0.00
2013-7-24,90.7,82.3,72.0,75.7,72.9,66.9,86,74,61,29.80,29.75,0,0,0,0.00
2013-7-25,88.4,78.5,70.7,73.3,69.9,66.7,87,75,61,29.99,29.84,0,0,0,0.00
2013-7-26,89.8,75.7,67.0,69.3,66.4,63.3,88,75,49,30.07,30.04,0,0,0,0.00
2013-7-27,87.8,79.2,73.8,74.1,71.0,68.7,86,77,60,30.03,29.95,0,0,0,0.00
2013-7-28,83.3,80.7,76.9,72.9,71.8,70.2,80,75,71,30.00,29.97,0,0,0,0.00
2013-7-29,92.9,80.5,72.4,75.3,72.7,67.6,87,78,54,30.13,30.04,0,0,0,0.00
2013-7-30,93.2,78.5,68.2,74.9,69.8,64.5,88,76,49,30.19,30.11,0,0,0,0.00
2013-7-31,86.8,80.9,73.8,75.5,72.9,69.8,87,77,66,30.14,30.02,0,0,0,0.00
2013-8-1,88.6,79.5,73.1,75.8,72.0,69.0,88,78,66,29.96,29.89,0,0,0,0.00
2013-8-2,88.9,80.3,73.3,76.5,73.3,69.5,88,80,66,30.03,29.95,0,0,0,0.00
2013-8-3,92.5,87.3,79.6,77.9,76.4,74.0,85,71,60,30.04,29.91,0,0,0,0.00
2013-8-4,83.7,78.7,72.4,72.7,69.0,64.7,85,73,58,30.02,29.92,0,0,0,0.00
2013-8-5,91.8,81.4,70.0,68.0,65.6,63.1,80,60,45,30.08,30.00,0,0,0,0.00
2013-8-6,84.6,77.4,68.2,71.0,67.3,62.2,82,72,60,30.07,30.02,0,0,0,0.00
2013-8-7,90.9,77.5,67.5,72.1,67.7,63.2,86,73,53,30.09,30.03,0,0,0,0.00
2013-8-8,96.5,83.6,69.7,76.0,70.9,65.3,87,68,52,30.04,30.00,0,0,0,0.00
2013-8-9,94.1,82.9,77.2,76.3,74.3,72.4,87,77,52,30.09,30.03,0,0,0,0.00
2013-8-10,89.5,82.2,78.1,74.8,73.2,70.7,80,74,62,30.10,30.07,0,0,0,0.00
2013-8-11,88.2,82.3,76.0,78.8,75.3,71.8,87,80,72,30.11,30.01,0,0,0,0.00
2013-8-12,101.2,91.3,81.4,77.2,75.1,71.9,73,60,44,30.03,29.93,0,0,0,0.00
2013-8-13,92.0,82.1,75.6,79.4,74.1,70.1,87,77,62,29.92,29.80,0,0,0,0.00
2013-8-14,76.7,73.2,69.3,69.8,67.0,63.5,87,81,75,30.05,29.90,0,0,0,0.00
2013-8-15,76.9,68.4,62.6,65.1,62.0,58.1,87,80,67,30.14,30.05,0,0,0,0.00
2013-8-16,73.1,68.5,66.6,65.4,63.9,62.6,88,85,76,30.14,30.09,0,0,0,0.00
2013-8-17,79.9,72.1,67.3,73.6,67.9,63.9,89,87,81,30.12,30.07,0,0,0,0.00
2013-8-18,94.9,83.0,71.3,76.1,71.8,67.5,89,71,51,30.18,30.11,0,0,0,0.00
2013-8-19,74.5,72.5,71.3,70.5,68.6,67.5,88,88,87,30.16,30.08,0,0,0,0.00
2013-8-20,81.0,75.5,72.0,74.4,71.2,68.2,88,86,80,30.17,30.11,0,0,0,0.00
2013-8-21,93.6,80.3,70.7,78.0,72.1,66.7,89,77,57,30.22,30.10,0,0,0,0.00
2013-8-22,90.4,75.8,71.1,75.6,69.8,67.3,88,82,62,30.12,30.00,0,0,0,0.00
2013-8-23,76.3,73.0,69.8,69.9,67.7,66.1,88,84,78,30.00,29.99,0,0,0,0.00
2013-8-24,72.2,70.4,69.3,64.2,63.7,63.2,82,79,76,30.25,30.14,0,0,0,0.00
2013-8-25,84.1,73.9,65.2,64.1,61.9,60.3,87,68,48,30.35,30.27,0,0,0,0.00
2013-8-26,84.4,73.0,59.6,63.3,60.7,55.5,86,68,49,30.25,30.12,0,0,0,0.00
2013-8-27,87.8,77.1,61.2,71.8,65.7,57.0,86,69,54,30.08,29.97,0,0,0,0.00
2013-8-28,88.7,78.2,67.7,76.4,71.0,63.4,87,79,64,29.99,29.91,0,0,0,0.00
2013-8-29,87.8,80.1,75.2,76.1,72.0,69.5,83,76,67,29.96,29.88,0,0,0,0.00
2013-8-30,88.4,81.0,67.7,71.0,69.3,64.0,88,69,56,30.02,29.96,0,0,0,0.00
2013-8-31,90.4,82.1,72.7,72.6,70.6,68.7,87,70,50,29.98,29.90,0,0,0,0.00
2013-9-1,90.4,82.6,76.0,78.2,75.0,71.8,87,78,66,29.93,29.85,0,0,0,0.00
2013-9-2,84.6,81.2,76.7,76.6,74.3,72.5,87,80,73,29.90,29.81,0,0,0,0.00
2013-9-3,90.9,78.8,71.6,76.8,70.8,66.1,87,77,60,29.92,29.80,0,0,0,0.00
2013-9-4,95.4,83.5,67.0,74.7,71.7,63.3,88,69,51,30.04,29.98,0,0,0,0.00
2013-9-5,95.9,82.5,73.8,74.6,69.0,61.7,88,67,35,30.09,30.01,0,0,0,0.00
2013-9-6,85.9,72.0,65.7,66.8,63.2,61.0,85,76,53,30.12,30.09,0,0,0,0.00
2013-9-7,89.3,77.4,65.9,64.4,61.6,59.5,83,61,42,30.11,29.98,0,0,0,0.00
2013-9-8,95.6,79.1,65.7,69.5,66.5,60.0,85,67,43,29.99,29.89,0,0,0,0.00
2013-9-9,94.1,78.6,65.3,72.4,66.9,61.0,86,70,48,30.10,30.02,0,0,0,0.00
2013-9-10,89.6,77.4,67.0,73.2,68.0,62.7,87,74,54,30.22,30.15,0,0,0,0.00
2013-9-11,91.4,83.3,66.2,72.9,69.0,61.9,87,64,51,30.20,30.08,0,0,0,0.00
2013-9-12,78.7,74.5,68.6,70.3,68.0,64.2,87,81,72,30.03,29.85,0,0,0,0.00
2013-9-13,92.5,78.2,70.9,68.4,64.8,60.6,85,65,40,29.84,29.75,0,0,0,0.00
2013-9-14,70.0,67.3,65.7,58.2,56.0,52.8,74,67,61,30.00,29.85,0,0,0,0.00
2013-9-16,88.2,80.3,65.2,72.6,67.1,60.6,86,65,52,30.14,30.03,0,0,0,0.00
2013-9-17,79.9,68.1,62.3,59.1,55.9,53.1,79,66,45,30.27,30.20,0,0,0,0.00
2013-9-18,76.0,62.5,51.8,57.1,52.6,47.2,84,71,52,30.26,30.16,0,0,0,0.00
2013-9-19,81.4,64.4,53.3,58.1,55.5,48.9,86,74,45,30.17,30.09,0,0,0,0.00
2013-9-20,69.7,66.7,65.3,64.1,61.9,60.0,87,85,82,30.10,30.05,0,0,0,0.00
2013-9-21,79.6,72.9,67.1,69.8,67.5,63.5,88,83,72,29.90,29.73,0,0,0,0.00
2013-9-22,73.6,69.0,65.7,67.4,62.9,60.6,88,81,73,29.83,29.66,0,0,0,0.00
2013-9-23,75.2,63.8,56.9,59.1,55.6,52.8,87,76,55,30.03,29.90,0,0,0,0.00
2013-9-24,76.0,62.2,51.7,58.8,54.2,47.9,88,76,54,30.08,29.95,0,0,0,0.00
2013-9-25,59.9,56.1,52.6,56.1,52.2,48.4,87,87,86,29.91,29.90,0,0,0,0.00
2013-9-26,62.8,62.5,62.3,59.9,59.0,58.4,90,88,87,29.88,29.87,0,0,0,0.00
2013-9-27,63.5,58.9,55.8,58.6,54.8,51.9,87,86,84,30.08,30.03,0,0,0,0.00
2013-9-28,74.9,67.6,56.9,58.8,56.8,52.8,86,69,56,30.19,30.13,0,0,0,0.00
2013-9-29,73.8,65.6,57.1,57.1,54.9,53.6,88,70,50,30.12,30.01,0,0,0,0.00
2013-9-30,56.3,55.8,55.4,52.8,52.2,51.5,90,88,86,30.06,30.02,0,0,0,0.00
2013-10-1,51.7,51.3,51.1,48.5,48.0,47.6,89,88,88,30.09,30.08,0,0,0,0.00
2013-10-2,84.6,75.5,56.9,65.3,61.5,53.6,91,64,48,30.11,30.04,0,0,0,0.00
2013-10-3,86.9,75.3,59.2,67.2,62.2,57.3,99,67,40,30.12,30.06,0,0,0,0.00
2013-10-4,85.5,76.5,64.4,69.7,66.7,64.2,99,75,49,30.13,30.11,0,0,0,0.00
2013-10-5,92.2,85.7,76.1,79.9,65.2,49.8,94,56,24,30.12,30.03,0,0,0,0.00
2013-10-6,104.9,101.7,97.6,91.2,85.0,75.3,73,60,47,30.01,29.95,0,0,0,0.00
2013-10-10,19.6,4.9,-39.2,19.4,2.9,-46.4,99,90,65,29.96,29.93,0,0,0,0.00
2013-10-11,-39.2,-39.2,-39.2,-45.2,-45.2,-45.2,70,70,70,29.92,29.92,0,0,0,0.00
2013-10-13,54.5,20.5,-13.5,54.3,19.3,-15.7,99,94,90,30.12,30.12,0,0,0,0.00
2013-10-15,71.8,5.2,-39.2,71.6,1.8,-44.7,99,83,72,30.11,30.03,0,0,0,0.00
2013-10-16,7.0,-23.8,-39.2,5.0,-28.6,-45.4,91,76,69,30.01,29.97,0,0,0,0.00
2013-10-17,6.1,-14.9,-35.8,5.9,-16.1,-38.2,99,94,88,29.94,29.93,0,0,0,0.00